Weather History for Fountain Dale, PA

Change the Weather History Date:

Thursday, January 23, 2014

  Actual Average (KHGR) Record (KHGR)
Temperature  
Mean Temperature 10 °F -  
Max Temperature 17 °F 34 °F 59 °F (1999)
Min Temperature 3 °F 20 °F 4 °F (2014)
Degree Days  
Heating Degree Days 55    
Moisture  
Dew Point -1 °F    
Average Humidity 60    
Maximum Humidity 79    
Minimum Humidity 47    
Precipitation  
Precipitation 0.00 in - - ()
Sea Level Pressure  
Sea Level Pressure 30.23 in    
Wind  
Wind Speed 4 mph (West)    
Max Wind Speed 13 mph    
Max Gust Speed 23 mph    
Visibility 8 miles    
Events Snow    
Averages and records for this station are not official NWS values.
T = Trace of Precipitation, MM = Missing Value Source: NWS Daily Summary

Daily Weather History Graph

Daily Weather History Graph

Search for Another Location

Airport:

Trip Planner

Search our weather history database for the weather conditions in past years. The results will help you decide how hot, cold, wet, or windy it might be!

Date:

Astronomy

Jan. 23, 2014 Rise Set
Actual Time 7:24 AM EST 5:18 PM EST
Civil Twilight 6:55 AM EST 5:47 PM EST
Nautical Twilight 6:22 AM EST 6:20 PM EST
Astronomical Twilight 5:50 AM EST 6:52 PM EST
Moon No Moon Rise 10:59 AM EST (1/23)
Length of Visible Light 10h 52m
Length of Day
9h 54m
Waning Gibbous, 55% of the Moon is Illuminated
Jan 23
Waning Gibbous
Jan 24
Last Quarter
Jan 30
New
Feb 6
First Quarter
Feb 14
Full

Hourly Weather History & Observations

Time (EST) Temp. Windchill Dew Point Humidity Pressure Visibility Wind Dir Wind Speed Gust Speed Precip Events Conditions
12:53 AM 9.0 °F -2.2 °F -5.1 °F 53% 30.11 in 10.0 mi Variable 6.9 mph - N/A   Overcast
1:53 AM 8.1 °F - -5.1 °F 55% 30.12 in 10.0 mi Calm Calm - N/A   Mostly Cloudy
2:53 AM 10.0 °F - -4.0 °F 53% 30.12 in 10.0 mi Calm Calm - N/A   Overcast
3:53 AM 7.0 °F - -4.0 °F 61% 30.14 in 10.0 mi Calm Calm - N/A   Mostly Cloudy
4:53 AM 3.9 °F - -5.1 °F 66% 30.14 in 10.0 mi Calm Calm - N/A   Clear
5:53 AM 3.0 °F - -5.1 °F 69% 30.16 in 10.0 mi Calm Calm - N/A   Scattered Clouds
6:53 AM 5.0 °F - -5.1 °F 63% 30.18 in 10.0 mi Calm Calm - N/A   Clear
7:53 AM 3.0 °F -4.4 °F -4.0 °F 73% 30.19 in 10.0 mi SW 3.5 mph - N/A   Scattered Clouds
8:53 AM 6.1 °F - -0.9 °F 73% 30.19 in 3.0 mi Calm Calm - 0.00 in Snow Light Snow
9:11 AM 8.6 °F - 1.4 °F 73% 30.09 in 1.5 mi Calm Calm - 0.00 in Snow Light Snow
9:22 AM 8.6 °F - 3.2 °F 79% 30.10 in 2.5 mi Calm Calm - 0.00 in Snow Light Snow
9:30 AM 10.4 °F - 3.2 °F 73% 30.11 in 4.0 mi Calm Calm - 0.00 in   Haze
9:53 AM 12.9 °F - 5.0 °F 71% 30.21 in 10.0 mi Calm Calm - 0.00 in   Mostly Cloudy
10:53 AM 16.0 °F 4.4 °F 1.9 °F 54% 30.22 in 10.0 mi WSW 9.2 mph - N/A   Overcast
11:53 AM 17.1 °F 4.3 °F 3.0 °F 54% 30.23 in 10.0 mi West 11.5 mph 19.6 mph N/A   Clear
12:53 PM 17.1 °F 8.7 °F 3.9 °F 56% 30.22 in 10.0 mi Variable 5.8 mph - N/A   Mostly Cloudy
1:53 PM 17.1 °F 5.8 °F 3.0 °F 54% 30.22 in 9.0 mi WSW 9.2 mph - 0.00 in   Overcast
2:14 PM 15.8 °F 2.1 °F 6.8 °F 68% 30.14 in 0.8 mi West 12.7 mph 23.0 mph 0.00 in Snow Light Snow
2:29 PM 15.8 °F - 8.6 °F 73% 30.14 in 1.0 mi Calm Calm - 0.00 in Snow Light Snow
2:53 PM 17.1 °F 7.6 °F 5.0 °F 59% 30.24 in 10.0 mi Variable 6.9 mph - 0.00 in   Mostly Cloudy
3:37 PM 15.8 °F 2.7 °F 5.0 °F 62% 30.17 in 2.0 mi West 11.5 mph 21.9 mph 0.00 in Snow Light Snow
4:53 PM 15.1 °F 1.8 °F -2.0 °F 47% 30.31 in 10.0 mi West 11.5 mph 20.7 mph 0.00 in   Scattered Clouds
5:53 PM 14.0 °F 2.9 °F -0.9 °F 52% 30.34 in 10.0 mi WNW 8.1 mph - N/A   Partly Cloudy
6:53 PM 12.0 °F 0.5 °F -2.9 °F 51% 30.38 in 10.0 mi WNW 8.1 mph - N/A   Clear
7:53 PM 10.9 °F 1.4 °F -4.0 °F 51% 30.41 in 10.0 mi Variable 5.8 mph - N/A   Clear
8:53 PM 10.0 °F -1.9 °F -5.1 °F 51% 30.42 in 10.0 mi West 8.1 mph - N/A   Clear
9:53 PM 9.0 °F -3.2 °F -5.1 °F 53% 30.43 in 10.0 mi SSW 8.1 mph - N/A   Clear
10:53 PM 8.1 °F -2.0 °F -5.1 °F 55% 30.45 in 10.0 mi West 5.8 mph - N/A   Clear
11:51 PM 8.6 °F -3.7 °F -5.8 °F 52% 30.35 in 10.0 mi West 8.1 mph - N/A   Overcast
11:53 PM 8.1 °F -0.5 °F -5.1 °F 55% 30.45 in 10.0 mi Variable 4.6 mph - N/A   Overcast